Charleston, SC

10:16 AM EST on December 14, 2017 (GMT -0500)
Charleston Air Force Base-International

Weather History for KCHS - April, 2013

Change the Weather History Date:

Tuesday, April 23, 2013

  Actual Average Record
Temperature  
Mean Temperature 61 °F 66 °F  
Max Temperature 69 °F 78 °F 92 °F (1963)
Min Temperature 53 °F 55 °F 39 °F (1993)
Degree Days  
Heating Degree Days 4 2  
Month to date heating degree days 71 78  
Since 1 July heating degree days 1836 1953  
Cooling Degree Days 0 4  
Month to date cooling degree days 63 56  
Year to date cooling degree days 94 90  
Growing Degree Days 11 (Base 50)    
Moisture  
Dew Point 50 °F    
Average Humidity 73    
Maximum Humidity 93    
Minimum Humidity 53    
Precipitation  
Precipitation 0.00 in 0.10 in 2.43 in (1938)
Month to date precipitation 4.43 2.25  
Year to date precipitation 19.32 12.63  
Snow  
Snow 0.00 in 0.00 in - ()
Month to date snowfall 0.0  
Since 1 July snowfall T 0.5  
Snow Depth 0.00 in    
Sea Level Pressure  
Sea Level Pressure 30.18 in    
Wind  
Wind Speed 7 mph (NNE)    
Max Wind Speed 15 mph    
Max Gust Speed 20 mph    
Visibility 10 miles    
Events      
T = Trace of Precipitation, MM = Missing Value Source: NWS Daily Summary

Daily Weather History Graph

Daily Weather History Graph

Search for Another Location

Airport or City:

Trip Planner

Search our weather history database for the weather conditions in past years. The results will help you decide how hot, cold, wet, or windy it might be!

Date:

Astronomy

Apr. 23, 2013 Rise Set
Actual Time 6:40 AM EDT 7:56 PM EDT
Civil Twilight 6:15 AM EDT 8:22 PM EDT
Nautical Twilight 5:44 AM EDT 8:53 PM EDT
Astronomical Twilight 5:12 AM EDT 9:25 PM EDT
Moon 5:55 PM EDT (4/23) 5:00 AM EDT (4/23)
Length of Visible Light 14h 07m
Length of Day
13h 15m
Waxing Gibbous, 94% of the Moon is Illuminated
Apr 23
Waxing Gibbous
Apr 25
Full
May 2
Last Quarter
May 9
New
May 18
First Quarter

Hourly Weather History & Observations

Time (EDT) Temp. Dew Point Humidity Pressure Visibility Wind Dir Wind Speed Gust Speed Precip Events Conditions
12:56 AM 54.0 °F 46.0 °F 75% 30.18 in 10.0 mi NNE 6.9 mph - N/A   Clear
1:56 AM 54.0 °F 46.9 °F 77% 30.17 in 10.0 mi NNE 5.8 mph - N/A   Mostly Cloudy
2:05 AM 53.6 °F 46.4 °F 77% 30.17 in 10.0 mi NNE 5.8 mph - N/A   Mostly Cloudy
2:56 AM 55.0 °F 46.9 °F 74% 30.16 in 10.0 mi NNE 6.9 mph - N/A   Overcast
3:56 AM 55.0 °F 46.9 °F 74% 30.16 in 10.0 mi NNE 9.2 mph - N/A   Overcast
4:56 AM 55.0 °F 46.9 °F 74% 30.16 in 10.0 mi NNE 10.4 mph 16.1 mph N/A   Overcast
5:56 AM 54.0 °F 46.9 °F 77% 30.16 in 10.0 mi North 9.2 mph - N/A   Overcast
6:56 AM 54.0 °F 46.9 °F 77% 30.17 in 10.0 mi NNE 15.0 mph 18.4 mph N/A   Overcast
7:56 AM 54.0 °F 48.0 °F 80% 30.19 in 10.0 mi North 11.5 mph - N/A   Overcast
8:56 AM 55.0 °F 48.0 °F 77% 30.21 in 10.0 mi NNE 11.5 mph - N/A   Overcast
9:56 AM 55.9 °F 48.0 °F 75% 30.20 in 10.0 mi NE 11.5 mph - N/A   Overcast
10:56 AM 59.0 °F 48.9 °F 69% 30.22 in 10.0 mi North 10.4 mph - N/A   Overcast
11:56 AM 60.1 °F 48.9 °F 67% 30.22 in 10.0 mi North 10.4 mph - N/A   Overcast
12:56 PM 64.0 °F 51.1 °F 63% 30.21 in 10.0 mi North 9.2 mph - N/A   Mostly Cloudy
1:56 PM 64.9 °F 51.1 °F 61% 30.19 in 10.0 mi North 8.1 mph - N/A   Overcast
2:56 PM 64.9 °F 51.1 °F 61% 30.18 in 10.0 mi Variable 4.6 mph - N/A   Overcast
3:56 PM 68.0 °F 52.0 °F 56% 30.17 in 10.0 mi North 4.6 mph - N/A   Mostly Cloudy
4:56 PM 66.9 °F 52.0 °F 59% 30.15 in 10.0 mi East 3.5 mph - N/A   Mostly Cloudy
5:56 PM 69.1 °F 51.1 °F 53% 30.15 in 10.0 mi Calm Calm - N/A   Scattered Clouds
6:56 PM 68.0 °F 52.0 °F 56% 30.15 in 10.0 mi ENE 5.8 mph - N/A   Mostly Cloudy
7:56 PM 62.1 °F 54.0 °F 75% 30.15 in 10.0 mi SSE 9.2 mph - N/A   Mostly Cloudy
8:56 PM 59.0 °F 53.1 °F 81% 30.17 in 10.0 mi ESE 5.8 mph - N/A   Partly Cloudy
9:56 PM 59.0 °F 53.1 °F 81% 30.19 in 10.0 mi East 3.5 mph - N/A   Scattered Clouds
10:56 PM 57.9 °F 53.1 °F 84% 30.20 in 10.0 mi Calm Calm - N/A   Partly Cloudy
11:56 PM 55.9 °F 53.1 °F 90% 30.18 in 10.0 mi Calm Calm - N/A   Partly Cloudy